OPS 4682 DEB, 19950

Orbit data source: Space-Track

OPS 4682 DEB, 19950 is space debris in LEO originally from a launch on Sat, 03 Apr 1965 UTC launched from the Air Force Western Test Range (AFWTR). Debris objects in space refer to the collection of defunct objects orbiting the Earth. Examples of debris include non-operational satellites, rocket bodies, and fragments generated from explosions, collisions, or faulty payload assembly.

Loading next visibility...
Identifier
19950, 1965-027AY
Orbit
LEO
Country
Flag of USUS
Related business
Manufacturer
Unknown
Mission
Spacecraft
Bus & Motor
Unknown
Mass
Unknown
Launch date (UTC)
1965-04-03 (61 years ago)
Launch vehicle
Unknown
Launch site
Air Force Western Test Range (AFWTR)
Object type
Payload
Rocket body
Debris
Shape & HBR
Unknown shape, 0.1 m
Radar Cross Section
Small (<0.1 m²)

Expand to show TLE details & history
Last TLE update: 1 week ago

TLE from 1 week ago
0 OPS 4682 DEB
1 19950U 65027AY  25283.96777211  .00000486  00000-0  17060-2 0  9998
2 19950  90.2466   3.8221 0031890 123.9339 236.4819 12.94948547520395
Epoch: 2025-10-10T23:13Z
TLE epoch observation values (Epoch: 2025-10-10T23:13:35.510Z)
Latitude
-0.00003°
Longitude
-4.38187°
Altitude
1,298.365 km
Speed
7.201 km/s
True Right ascension
00h 15m 17s
True Declination
0° 00' 00"
Sunlit
Object was in full shadow at epoch
Visualization orbit readout
Latitude
Unknown
Longitude
Unknown
Altitude
Unknown
Speed
Unknown
Apparent Right ascension
Unknown
Apparent Declination
Unknown
Sunlit
N/A
Visualization observer readout
Local Sidereal Time
18:01:35
Azimuth
Unknown
Elevation
Unknown
Doppler factor
Unknown
Orbital elements
Apogee altitude
1,303.496 km
Perigee altitude
1,254.658 km
Semi-major axis
7,657.214 km
Eccentricity
0.00319
Inclination
90.2466°
RAAN
3.8221°
Arg. of periapsis
123.9339°
True anomaly
236.17791°
Mean anomaly
236.4819°
Eccentric anomaly
236.32984°
Mean motion
3.23919 °/min
Orbital period
111.14 mins
BSTAR
0.001706
Loading maneuver chart data...
Computing Atmospheric mass density...
Loading historical data...
Loading historical data...
Loading historical data...
Loading historical data...
Loading historical data...
Loading historical data...
Loading historical data...

Documentation

Showing up to 5 results
|